Time,TemperatureF,DewpointF,PressureIn,WindDirection,WindDirectionDegrees,WindSpeedMPH,WindSpeedGustMPH,Humidity,HourlyPrecipIn,Conditions,Clouds,dailyrainin,SoftwareType,DateUTC
2013-06-11 00:09:00,54.1,54.0,29.95,SW,215,0.0,-999.0,99,-99.99,,,0.00,weatherlink.com 1.10,2013-06-11 07:09:00,
2013-06-11 00:24:00,54.2,54.0,29.95,SW,215,0.0,-999.0,99,-99.99,,,0.00,weatherlink.com 1.10,2013-06-11 07:24:00,
2013-06-11 00:40:00,54.4,54.0,29.95,SW,215,1.0,-999.0,99,-99.99,,,0.00,weatherlink.com 1.10,2013-06-11 07:40:00,
2013-06-11 00:55:00,54.4,54.0,29.95,SW,215,0.0,-999.0,99,-99.99,,,0.00,weatherlink.com 1.10,2013-06-11 07:55:00,
2013-06-11 01:10:00,54.4,54.0,29.95,SW,215,0.0,-999.0,99,-99.99,,,0.00,weatherlink.com 1.10,2013-06-11 08:10:00,
2013-06-11 01:25:00,54.4,54.0,29.94,SW,215,0.0,-999.0,99,-99.99,,,0.00,weatherlink.com 1.10,2013-06-11 08:25:00,
2013-06-11 01:40:00,54.2,54.0,29.94,SW,215,0.0,-999.0,99,-99.99,,,0.00,weatherlink.com 1.10,2013-06-11 08:40:00,
2013-06-11 01:55:00,54.2,54.0,29.94,SW,215,0.0,-999.0,99,-99.99,,,0.00,weatherlink.com 1.10,2013-06-11 08:55:00,
2013-06-11 02:10:00,54.2,54.0,29.94,SW,215,0.0,-999.0,99,-99.99,,,0.00,weatherlink.com 1.10,2013-06-11 09:10:00,
2013-06-11 02:25:00,54.1,54.0,29.94,SW,215,0.0,-999.0,99,-99.99,,,0.00,weatherlink.com 1.10,2013-06-11 09:25:00,
2013-06-11 02:40:00,54.1,54.0,29.94,SW,215,0.0,-999.0,99,-99.99,,,0.00,weatherlink.com 1.10,2013-06-11 09:40:00,
2013-06-11 02:55:00,53.9,54.0,29.93,SW,215,0.0,-999.0,99,-99.99,,,0.00,weatherlink.com 1.10,2013-06-11 09:55:00,
2013-06-11 03:10:00,53.5,53.0,29.93,SW,215,2.0,-999.0,99,-99.99,,,0.00,weatherlink.com 1.10,2013-06-11 10:10:00,
2013-06-11 03:25:00,53.0,53.0,29.93,SW,215,0.0,-999.0,98,-99.99,,,0.00,weatherlink.com 1.10,2013-06-11 10:25:00,
2013-06-11 03:40:00,52.3,52.0,29.93,SW,215,0.0,-999.0,98,-99.99,,,0.00,weatherlink.com 1.10,2013-06-11 10:40:00,
2013-06-11 03:55:00,51.9,52.0,29.93,SW,215,0.0,-999.0,99,-99.99,,,0.00,weatherlink.com 1.10,2013-06-11 10:55:00,
2013-06-11 04:10:00,51.9,52.0,29.92,SW,215,0.0,-999.0,99,-99.99,,,0.00,weatherlink.com 1.10,2013-06-11 11:10:00,
2013-06-11 04:25:00,51.9,52.0,29.93,SW,215,0.0,-999.0,99,-99.99,,,0.00,weatherlink.com 1.10,2013-06-11 11:25:00,
2013-06-11 04:40:00,52.7,53.0,29.93,SW,215,1.0,-999.0,100,-99.99,,,0.00,weatherlink.com 1.10,2013-06-11 11:40:00,
2013-06-11 04:55:00,53.2,53.0,29.94,WSW,245,0.0,-999.0,100,-99.99,,,0.00,weatherlink.com 1.10,2013-06-11 11:55:00,
2013-06-11 05:10:00,53.3,53.0,29.94,WSW,245,0.0,-999.0,100,-99.99,,,0.00,weatherlink.com 1.10,2013-06-11 12:10:00,
2013-06-11 05:25:00,53.3,53.0,29.94,WSW,245,0.0,-999.0,100,-99.99,,,0.00,weatherlink.com 1.10,2013-06-11 12:25:00,
2013-06-11 05:40:00,53.3,53.0,29.94,WSW,245,0.0,-999.0,100,-99.99,,,0.00,weatherlink.com 1.10,2013-06-11 12:40:00,
2013-06-11 05:55:00,53.5,54.0,29.94,WSW,245,0.0,-999.0,100,-99.99,,,0.00,weatherlink.com 1.10,2013-06-11 12:55:00,
2013-06-11 06:10:00,53.3,53.0,29.94,WSW,245,0.0,-999.0,100,-99.99,,,0.00,weatherlink.com 1.10,2013-06-11 13:10:00,
2013-06-11 06:25:00,53.5,54.0,29.94,WSW,245,0.0,-999.0,100,-99.99,,,0.00,weatherlink.com 1.10,2013-06-11 13:25:00,
2013-06-11 06:40:00,53.8,54.0,29.94,NNW,340,0.0,-999.0,100,-99.99,,,0.00,weatherlink.com 1.10,2013-06-11 13:40:00,
2013-06-11 06:55:00,54.1,54.0,29.95,NNW,340,0.0,-999.0,100,-99.99,,,0.00,weatherlink.com 1.10,2013-06-11 13:55:00,
2013-06-11 07:10:00,54.2,54.0,29.95,WSW,241,0.0,-999.0,100,-99.99,,,0.00,weatherlink.com 1.10,2013-06-11 14:10:00,
2013-06-11 07:25:00,54.8,54.0,29.95,WSW,241,0.0,-999.0,96,-99.99,,,0.00,weatherlink.com 1.10,2013-06-11 14:25:00,
2013-06-11 07:40:00,55.4,54.0,29.96,WSW,241,0.0,-999.0,93,-99.99,,,0.00,weatherlink.com 1.10,2013-06-11 14:40:00,
2013-06-11 07:55:00,56.1,54.0,29.96,SW,219,2.0,-999.0,91,-99.99,,,0.00,weatherlink.com 1.10,2013-06-11 14:55:00,
2013-06-11 08:10:00,57.1,54.0,29.96,South,182,0.0,-999.0,89,-99.99,,,0.00,weatherlink.com 1.10,2013-06-11 15:10:00,
2013-06-11 08:25:00,57.5,54.0,29.97,South,182,0.0,-999.0,87,-99.99,,,0.00,weatherlink.com 1.10,2013-06-11 15:25:00,
2013-06-11 08:40:00,58.3,54.0,29.97,South,182,1.0,-999.0,85,-99.99,,,0.00,weatherlink.com 1.10,2013-06-11 15:40:00,
2013-06-11 08:55:00,59.2,53.0,29.97,South,189,1.0,-999.0,81,-99.99,,,0.00,weatherlink.com 1.10,2013-06-11 15:55:00,
2013-06-11 09:10:00,59.2,53.0,29.97,SSE,150,0.0,-999.0,79,-99.99,,,0.00,weatherlink.com 1.10,2013-06-11 16:10:00,
2013-06-11 09:25:00,59.7,54.0,29.98,SSE,150,3.0,-999.0,80,-99.99,,,0.00,weatherlink.com 1.10,2013-06-11 16:25:00,
2013-06-11 09:40:00,59.7,53.0,29.98,SE,141,0.0,-999.0,79,-99.99,,,0.00,weatherlink.com 1.10,2013-06-11 16:40:00,
2013-06-11 09:55:00,60.3,53.0,29.98,SSE,155,0.0,-999.0,78,-99.99,,,0.00,weatherlink.com 1.10,2013-06-11 16:55:00,
2013-06-11 10:10:00,61.2,54.0,29.98,East,101,4.0,-999.0,77,-99.99,,,0.00,weatherlink.com 1.10,2013-06-11 17:10:00,
2013-06-11 10:25:00,62.3,54.0,29.98,ESE,119,0.0,-999.0,75,-99.99,,,0.00,weatherlink.com 1.10,2013-06-11 17:25:00,
2013-06-11 10:40:00,64.9,55.0,29.97,ESE,114,1.0,-999.0,71,-99.99,,,0.00,weatherlink.com 1.10,2013-06-11 17:40:00,
2013-06-11 10:55:00,65.4,56.0,29.97,NNW,344,0.0,-999.0,72,-99.99,,,0.00,weatherlink.com 1.10,2013-06-11 17:55:00,
2013-06-11 11:10:00,65.9,55.0,29.97,SSE,159,2.0,-999.0,68,-99.99,,,0.00,weatherlink.com 1.10,2013-06-11 18:10:00,
2013-06-11 11:25:00,66.9,56.0,29.97,SSE,148,7.0,-999.0,68,-99.99,,,0.00,weatherlink.com 1.10,2013-06-11 18:25:00,
2013-06-11 11:40:00,67.2,56.0,29.97,SE,136,5.0,-999.0,68,-99.99,,,0.00,weatherlink.com 1.10,2013-06-11 18:40:00,
2013-06-11 11:55:00,68.1,55.0,29.97,WSW,247,0.0,-999.0,63,-99.99,,,0.00,weatherlink.com 1.10,2013-06-11 18:55:00,
2013-06-11 12:10:00,69.2,55.0,29.97,SW,223,0.0,-999.0,61,-99.99,,,0.00,weatherlink.com 1.10,2013-06-11 19:10:00,
2013-06-11 12:25:00,70.4,56.0,29.97,South,173,5.0,-999.0,60,-99.99,,,0.00,weatherlink.com 1.10,2013-06-11 19:25:00,
2013-06-11 12:40:00,72.5,56.0,29.96,ESE,111,0.0,-999.0,57,-99.99,,,0.00,weatherlink.com 1.10,2013-06-11 19:40:00,
2013-06-11 12:55:00,73.7,56.0,29.95,South,186,3.0,-999.0,55,-99.99,,,0.00,weatherlink.com 1.10,2013-06-11 19:55:00,
2013-06-11 13:10:00,73.9,57.0,29.95,ESE,114,3.0,-999.0,56,-99.99,,,0.00,weatherlink.com 1.10,2013-06-11 20:10:00,
2013-06-11 13:25:00,72.1,57.0,29.95,South,176,5.0,-999.0,60,-99.99,,,0.00,weatherlink.com 1.10,2013-06-11 20:25:00,
2013-06-11 13:41:00,72.0,57.0,29.95,SSE,163,6.0,-999.0,60,-99.99,,,0.00,weatherlink.com 1.10,2013-06-11 20:41:00,
2013-06-11 13:56:00,72.0,57.0,29.94,SSE,150,2.0,-999.0,59,-99.99,,,0.00,weatherlink.com 1.10,2013-06-11 20:56:00,
2013-06-11 14:11:00,71.8,57.0,29.94,South,174,0.0,-999.0,60,-99.99,,,0.00,weatherlink.com 1.10,2013-06-11 21:11:00,
2013-06-11 14:26:00,73.0,57.0,29.94,SSE,153,4.0,-999.0,58,-99.99,,,0.00,weatherlink.com 1.10,2013-06-11 21:26:00,
2013-06-11 14:41:00,74.6,58.0,29.93,SSW,194,1.0,-999.0,56,-99.99,,,0.00,weatherlink.com 1.10,2013-06-11 21:41:00,
2013-06-11 14:56:00,75.5,58.0,29.93,SSW,212,2.0,-999.0,54,-99.99,,,0.00,weatherlink.com 1.10,2013-06-11 21:56:00,
2013-06-11 15:11:00,76.5,59.0,29.92,SSW,209,0.0,-999.0,54,-99.99,,,0.00,weatherlink.com 1.10,2013-06-11 22:11:00,
2013-06-11 15:26:00,77.3,59.0,29.92,ESE,122,5.0,-999.0,53,-99.99,,,0.00,weatherlink.com 1.10,2013-06-11 22:26:00,
2013-06-11 15:41:00,77.4,58.0,29.91,West,261,3.0,-999.0,51,-99.99,,,0.00,weatherlink.com 1.10,2013-06-11 22:41:00,
2013-06-11 15:56:00,77.1,58.0,29.91,South,173,6.0,-999.0,51,-99.99,,,0.00,weatherlink.com 1.10,2013-06-11 22:56:00,
2013-06-11 16:11:00,77.3,58.0,29.91,SW,225,1.0,-999.0,51,-99.99,,,0.00,weatherlink.com 1.10,2013-06-11 23:11:00,
2013-06-11 16:26:00,77.3,57.0,29.91,West,261,7.0,-999.0,49,-99.99,,,0.00,weatherlink.com 1.10,2013-06-11 23:26:00,
2013-06-11 16:41:00,76.5,56.0,29.91,SSW,211,6.0,-999.0,50,-99.99,,,0.00,weatherlink.com 1.10,2013-06-11 23:41:00,
2013-06-11 16:56:00,76.0,55.0,29.91,WNW,288,5.0,-999.0,49,-99.99,,,0.00,weatherlink.com 1.10,2013-06-11 23:56:00,
2013-06-11 17:26:00,76.7,55.0,29.90,SSW,211,4.0,-999.0,47,-99.99,,,0.00,weatherlink.com 1.10,2013-06-12 00:26:00,
2013-06-11 17:41:00,76.9,55.0,29.89,WSW,257,3.0,-999.0,47,-99.99,,,0.00,weatherlink.com 1.10,2013-06-12 00:41:00,
2013-06-11 17:56:00,76.7,55.0,29.89,South,175,1.0,-999.0,48,-99.99,,,0.00,weatherlink.com 1.10,2013-06-12 00:56:00,
2013-06-11 18:11:00,76.4,55.0,29.89,SSW,192,0.0,-999.0,48,-99.99,,,0.00,weatherlink.com 1.10,2013-06-12 01:11:00,
2013-06-11 18:26:00,76.7,53.0,29.88,ESE,114,3.0,-999.0,44,-99.99,,,0.00,weatherlink.com 1.10,2013-06-12 01:26:00,
2013-06-11 18:41:00,76.7,53.0,29.88,SSE,148,0.0,-999.0,44,-99.99,,,0.00,weatherlink.com 1.10,2013-06-12 01:41:00,
2013-06-11 18:56:00,76.2,53.0,29.88,SE,126,2.0,-999.0,44,-99.99,,,0.00,weatherlink.com 1.10,2013-06-12 01:56:00,
2013-06-11 19:11:00,74.9,52.0,29.88,East,99,0.0,-999.0,45,-99.99,,,0.00,weatherlink.com 1.10,2013-06-12 02:11:00,
2013-06-11 19:41:00,70.1,53.0,29.88,East,94,5.0,-999.0,55,-99.99,,,0.00,weatherlink.com 1.10,2013-06-12 02:41:00,
2013-06-11 19:56:00,67.4,52.0,29.88,East,84,0.0,-999.0,59,-99.99,,,0.00,weatherlink.com 1.10,2013-06-12 02:56:00,
2013-06-11 20:11:00,64.9,51.0,29.88,East,98,0.0,-999.0,61,-99.99,,,0.00,weatherlink.com 1.10,2013-06-12 03:11:00,
2013-06-11 20:26:00,63.1,50.0,29.88,East,88,0.0,-999.0,63,-99.99,,,0.00,weatherlink.com 1.10,2013-06-12 03:26:00,
2013-06-11 20:41:00,61.9,50.0,29.88,East,88,0.0,-999.0,65,-99.99,,,0.00,weatherlink.com 1.10,2013-06-12 03:41:00,
2013-06-11 20:56:00,60.3,50.0,29.88,East,88,0.0,-999.0,68,-99.99,,,0.00,weatherlink.com 1.10,2013-06-12 03:56:00,
2013-06-11 21:11:00,59.0,49.0,29.88,East,88,0.0,-999.0,70,-99.99,,,0.00,weatherlink.com 1.10,2013-06-12 04:11:00,
2013-06-11 21:26:00,57.8,49.0,29.89,East,88,0.0,-999.0,72,-99.99,,,0.00,weatherlink.com 1.10,2013-06-12 04:26:00,
2013-06-11 21:41:00,56.4,49.0,29.89,East,88,0.0,-999.0,76,-99.99,,,0.00,weatherlink.com 1.10,2013-06-12 04:41:00,
2013-06-11 22:11:00,54.1,49.0,29.90,East,88,0.0,-999.0,84,-99.99,,,0.00,weatherlink.com 1.10,2013-06-12 05:11:00,
2013-06-11 22:26:00,53.0,49.0,29.90,East,88,0.0,-999.0,86,-99.99,,,0.00,weatherlink.com 1.10,2013-06-12 05:26:00,
2013-06-11 22:41:00,52.1,48.0,29.91,East,88,0.0,-999.0,87,-99.99,,,0.00,weatherlink.com 1.10,2013-06-12 05:41:00,
2013-06-11 22:56:00,51.1,48.0,29.90,East,88,0.0,-999.0,88,-99.99,,,0.00,weatherlink.com 1.10,2013-06-12 05:56:00,
2013-06-11 23:11:00,50.2,47.0,29.91,East,88,0.0,-999.0,90,-99.99,,,0.00,weatherlink.com 1.10,2013-06-12 06:11:00,
2013-06-11 23:26:00,49.9,48.0,29.90,East,88,0.0,-999.0,92,-99.99,,,0.00,weatherlink.com 1.10,2013-06-12 06:26:00,
2013-06-11 23:41:00,49.3,47.0,29.91,East,88,0.0,-999.0,93,-99.99,,,0.00,weatherlink.com 1.10,2013-06-12 06:41:00,
2013-06-11 23:56:00,48.6,47.0,29.90,East,88,0.0,-999.0,93,-99.99,,,0.00,weatherlink.com 1.10,2013-06-12 06:56:00,